User: anonymous   Login
Location: Asheville, NC
(35.6000°N, 82.5500°W)
Time: 23:11:34
(UTC-05:00)
Language:

PicSat - Orbit

View from above orbital plane
View from above orbital plane
View from above satellite
View from above satellite

Ground track
Ground track

The orbit data is extracted from the following two-line orbital elements,

1 43131U 18004W   19017.85728622  .00001305  00000-0  57566-4 0  9995
2 43131  97.5090  85.9635 0011045  70.7980 289.4451 15.23547602 56393
Epoch (UTC): 17 January 2019 20:34:29
Eccentricity: 0.0011045
inclination: 97.5090°
perigee height: 487 km
apogee height: 503 km
right ascension of ascending node: 85.9635°
argument of perigee: 70.7980°
revolutions per day: 15.23547602
mean anomaly at epoch: 289.4451°
orbit number at epoch: 5639

The dashed part of the orbit path shows where the satellite is in the earth's shadow,  

DLR